Location: Newark
(49.3000°N, 9.4667°E)
Time: 05:15:44
(UTC+00:00)

Vanguard 1 - All Passes

Search period start: 21 May 2019 00:00
Search period end: 31 May 2019 00:00
Orbit: 653 x 3830 km, 34.2° (Epoch: 19 May)

Date Brightness Start Highest point End Pass type
(mag) Time Alt. Az. Time Alt. Az. Time Alt. Az.
21 May - 11:15:48 10° S 11:19:20 16° SSE 11:23:52 10° ESE daylight
21 May - 13:32:23 10° SW 13:38:31 30° S 13:48:22 10° ESE daylight
21 May - 15:51:21 10° WSW 15:59:14 28° SSW 16:11:32 10° SE daylight
21 May - 18:14:22 10° WSW 18:20:56 15° SSW 18:29:06 10° S daylight
22 May - 11:35:44 10° SSW 11:39:49 19° SSE 11:45:22 10° ESE daylight
22 May - 13:53:04 10° WSW 13:59:17 30° S 14:09:16 10° SE daylight
22 May - 16:12:36 10° WSW 16:20:09 24° SSW 16:31:24 10° SSE daylight
23 May - 11:55:59 10° SSW 12:00:24 22° SSE 12:06:38 10° ESE daylight
23 May - 14:13:53 10° WSW 14:20:07 28° S 14:29:57 10° SE daylight
23 May - 16:34:13 10° WSW 16:41:06 19° SSW 16:50:41 10° SSE daylight
24 May - 12:16:25 10° SW 12:21:03 24° SSE 12:27:43 10° ESE daylight
24 May - 14:34:50 10° WSW 14:40:58 25° S 14:50:23 10° SE daylight
24 May - 16:56:33 10° SW 17:02:03 15° SSW 17:09:01 10° S daylight
25 May - 10:20:45 10° S 10:22:47 12° SSE 10:25:05 10° SE daylight
25 May - 12:37:01 10° SW 12:41:45 24° S 12:48:38 10° SE daylight
25 May - 14:55:59 10° WSW 15:01:52 22° SSW 15:10:28 10° SSE daylight
26 May - 10:40:28 10° SSW 10:43:20 15° SSE 10:46:44 10° SE daylight
26 May - 12:57:45 10° SW 13:02:30 23° S 13:09:24 10° SE daylight
26 May - 15:17:27 10° SW 15:22:46 18° SSW 15:30:03 10° SSE daylight
27 May - 11:00:40 10° SSW 11:03:55 17° SSE 11:07:58 10° SE daylight
27 May - 13:18:38 10° SW 13:23:18 21° S 13:29:56 10° SE daylight
27 May - 15:39:37 10° SW 15:43:41 13° SSW 15:48:44 10° S daylight
28 May - 11:21:07 10° SW 11:24:34 18° S 11:28:57 10° SE daylight
28 May - 13:39:43 10° SW 13:44:07 19° S 13:50:09 10° SSE daylight
29 May - 11:41:45 10° SW 11:45:16 18° S 11:49:45 10° SE daylight
29 May - 14:01:09 10° SW 14:04:58 15° SSW 14:09:53 10° SSE daylight
30 May - 09:45:04 10° S 09:46:56 12° SSE 09:48:55 10° SE daylight
30 May - 12:02:35 10° SW 12:06:00 17° S 12:10:20 10° SE daylight
30 May - 14:23:24 10° SW 14:25:49 12° SSW 14:28:37 10° S daylight
